Weather History for KMTO - November, 2011

Change the Weather History Date:

Thursday, November 17, 2011

  Actual Average Record
Temperature  
Mean Temperature 36 °F 43 °F  
Max Temperature 43 °F 51 °F 75 °F (1958)
Min Temperature 28 °F 34 °F 3 °F (1959)
Degree Days  
Heating Degree Days 29 22  
Month to date heating degree days 245 321  
Since 1 July heating degree days 650 725  
Cooling Degree Days 0 0  
Month to date cooling degree days 0 0  
Year to date cooling degree days 1308 1057  
Moisture  
Dew Point 17 °F    
Average Humidity 50    
Maximum Humidity 69    
Minimum Humidity 30    
Precipitation  
Precipitation 0.00 in 0.12 in 1.19 in (1993)
Month to date precipitation 2.51 2.00  
Year to date precipitation 32.76 33.80  
Sea Level Pressure  
Sea Level Pressure 30.29 in    
Wind  
Wind Speed 10 mph (West)    
Max Wind Speed 23 mph    
Max Gust Speed 30 mph    
Visibility 10 miles    
Events      
T = Trace of Precipitation, MM = Missing Value Source: NWS Daily Summary

Daily Weather History Graph

Daily Weather History Graph

Search for Another Location

Airport or City:

Trip Planner

Search our weather history database for the weather conditions in past years. The results will help you decide how hot, cold, wet, or windy it might be!

Date:

Astronomy

Nov. 17, 2011 Rise Set
Actual Time 6:39 AM CST 4:36 PM CST
Civil Twilight 6:10 AM CST 5:05 PM CST
Nautical Twilight 5:37 AM CST 5:38 PM CST
Astronomical Twilight 5:05 AM CST 6:09 PM CST
Moon 10:56 PM CST (11/17) 11:48 AM CST (11/17)
Length of Visible Light 10h 55m
Length of Day
9h 57m
Waning Gibbous, 59% of the Moon is Illuminated
Nov 17
Waning Gibbous
Nov 18
Last Quarter
Nov 25
New
Dec 2
First Quarter
Dec 10
Full

Hourly Weather History & Observations

Time (CST) Temp. Windchill Dew Point Humidity Pressure Visibility Wind Dir Wind Speed Gust Speed Precip Events Conditions
12:53 AM 30.9 °F 26.2 °F 21.9 °F 69% 30.23 in 10.0 mi West 4.6 mph - N/A   Overcast
2:53 AM 30.9 °F 26.2 °F 21.0 °F 67% 30.23 in 10.0 mi West 4.6 mph - N/A   Scattered Clouds
3:53 AM 33.1 °F 27.7 °F 21.0 °F 61% 30.23 in 10.0 mi West 5.8 mph - N/A   Mostly Cloudy
4:53 AM 33.1 °F 25.5 °F 19.9 °F 59% 30.25 in 10.0 mi West 9.2 mph - N/A   Mostly Cloudy
5:53 AM 30.9 °F 21.2 °F 21.0 °F 67% 30.27 in 10.0 mi WNW 12.7 mph - N/A   Scattered Clouds
6:53 AM 28.9 °F 21.1 °F 19.9 °F 69% 30.28 in 10.0 mi West 8.1 mph - N/A   Clear
7:53 AM 32.0 °F 22.5 °F 19.0 °F 59% 30.30 in 10.0 mi WNW 12.7 mph - N/A   Clear
8:53 AM 35.1 °F 25.9 °F 17.1 °F 48% 30.32 in 10.0 mi WNW 13.8 mph - N/A   Clear
9:53 AM 37.0 °F 27.0 °F 15.1 °F 41% 30.32 in 10.0 mi WNW 18.4 mph - N/A   Clear
11:53 AM 41.0 °F 31.6 °F 17.1 °F 38% 30.31 in 10.0 mi WNW 20.7 mph - N/A   Clear
12:53 PM 42.1 °F 34.9 °F 16.0 °F 35% 30.30 in 10.0 mi NW 13.8 mph 25.3 mph N/A   Clear
2:53 PM 42.1 °F 34.5 °F 14.0 °F 32% 30.30 in 10.0 mi WNW 15.0 mph 21.9 mph N/A   Clear
3:53 PM 41.0 °F 34.3 °F 12.9 °F 32% 30.30 in 10.0 mi West 11.5 mph - N/A   Clear
4:53 PM 39.0 °F 36.8 °F 14.0 °F 36% 30.31 in 10.0 mi WSW 3.5 mph - N/A   Clear
5:53 PM 37.0 °F 34.5 °F 16.0 °F 42% 30.31 in 10.0 mi SSW 3.5 mph - N/A   Clear
6:53 PM 36.0 °F 32.1 °F 17.1 °F 46% 30.31 in 10.0 mi SSW 4.6 mph - N/A   Clear
7:53 PM 35.1 °F 30.1 °F 16.0 °F 46% 30.31 in 10.0 mi SSW 5.8 mph - N/A   Clear
8:53 PM 35.1 °F 30.1 °F 16.0 °F 46% 30.32 in 10.0 mi SSW 5.8 mph - N/A   Clear
11:53 PM 33.1 °F 26.9 °F 16.0 °F 50% 30.29 in 10.0 mi South 6.9 mph - N/A   Clear